,,Stat5,,Stat1,,Stat2,,Stat3,,Stat4,,Wind1,,Wind1,
time,status,PA1M_AVG,status,PR1M_SUM,status,RH1M_AVG,status,SR1M_AVG,status,TA1M_AVG,status,W1dAve1m,status,W1sAve1m,
2001-05-09, 00:00:00,VALID,918.448,VALID,0,VALID,99.1508,VALID,0,VALID,18.72,VALID,212,VALID,0,
2001-05-09, 00:01:00,VALID,918.455,VALID,0,VALID,99.1318,VALID,-0.0169808,VALID,18.71,VALID,217,VALID,0,
2001-05-09, 00:02:00,VALID,918.451,VALID,0,VALID,99.1216,VALID,-0.0169808,VALID,18.6971,VALID,215,VALID,0,
2001-05-09, 00:03:00,VALID,918.422,VALID,0,VALID,99.0745,VALID,-0.0339617,VALID,18.6844,VALID,215,VALID,0,
2001-05-09, 00:04:00,VALID,918.411,VALID,0,VALID,99.0364,VALID,-0.0509425,VALID,18.6718,VALID,203,VALID,0,
2001-05-09, 00:05:00,VALID,918.399,VALID,0,VALID,99.0173,VALID,0,VALID,18.6551,VALID,216,VALID,0,
2001-05-09, 00:06:00,VALID,918.404,VALID,0,VALID,99.0059,VALID,-0.0339617,VALID,18.6558,VALID,213,VALID,0,
2001-05-09, 00:07:00,VALID,918.405,VALID,0,VALID,98.9715,VALID,-0.0339617,VALID,18.6529,VALID,227,VALID,0,
2001-05-09, 00:08:00,VALID,918.399,VALID,0,VALID,98.9677,VALID,-0.0339617,VALID,18.633,VALID,226,VALID,0,
2001-05-09, 00:09:00,VALID,918.395,VALID,0,VALID,98.9499,VALID,-0.0169808,VALID,18.6263,VALID,229,VALID,0,
2001-05-09, 00:10:00,VALID,918.407,VALID,0,VALID,98.9537,VALID,-0.0169808,VALID,18.6231,VALID,234,VALID,0,
2001-05-09, 00:11:00,VALID,918.414,VALID,0,VALID,98.9512,VALID,-0.0339617,VALID,18.6233,VALID,226,VALID,0,
2001-05-09, 00:12:00,VALID,918.423,VALID,0,VALID,98.9537,VALID,-0.0339617,VALID,18.6166,VALID,227,VALID,0,
2001-05-09, 00:13:00,VALID,918.411,VALID,0,VALID,98.9715,VALID,-0.0339617,VALID,18.6134,VALID,242,VALID,0,
2001-05-09, 00:14:00,VALID,918.416,VALID,0,VALID,98.9614,VALID,-0.0339617,VALID,18.6233,VALID,235,VALID,0,
2001-05-09, 00:15:00,VALID,918.401,VALID,0,VALID,98.9601,VALID,-0.0169808,VALID,18.633,VALID,235,VALID,0,
2001-05-09, 00:16:00,VALID,918.374,VALID,0,VALID,98.9639,VALID,-0.0169808,VALID,18.6298,VALID,246,VALID,0,
2001-05-09, 00:17:00,VALID,918.345,VALID,0,VALID,98.9525,VALID,0,VALID,18.6132,VALID,244,VALID,0,
2001-05-09, 00:18:00,VALID,918.335,VALID,0,VALID,98.9512,VALID,-0.0169808,VALID,18.6005,VALID,250,VALID,0,
2001-05-09, 00:19:00,VALID,918.315,VALID,0,VALID,98.9639,VALID,-0.0339617,VALID,18.6139,VALID,253,VALID,0,
2001-05-09, 00:20:00,VALID,918.32,VALID,0,VALID,98.9715,VALID,-0.0679233,VALID,18.5975,VALID,249,VALID,0,
2001-05-09, 00:21:00,VALID,918.339,VALID,0,VALID,98.9664,VALID,-0.0339617,VALID,18.6044,VALID,252,VALID,0,
2001-05-09, 00:22:00,VALID,918.354,VALID,0,VALID,98.9753,VALID,-0.0169808,VALID,18.5942,VALID,251,VALID,0,
2001-05-09, 00:23:00,VALID,918.348,VALID,0,VALID,98.9715,VALID,-0.0339617,VALID,18.6012,VALID,251,VALID,0,
2001-05-09, 00:24:00,VALID,918.361,VALID,0,VALID,98.9614,VALID,-0.0339617,VALID,18.5938,VALID,251,VALID,0,
2001-05-09, 00:25:00,VALID,918.372,VALID,0,VALID,98.9512,VALID,-0.0169808,VALID,18.5908,VALID,251,VALID,0,
2001-05-09, 00:26:00,VALID,918.386,VALID,0,VALID,98.913,VALID,-0.0169808,VALID,18.5712,VALID,250,VALID,0,
2001-05-09, 00:27:00,VALID,918.392,VALID,0,VALID,98.8965,VALID,-0.0169808,VALID,18.5423,VALID,193,VALID,0,
2001-05-09, 00:28:00,VALID,918.405,VALID,0,VALID,98.8965,VALID,-0.0339617,VALID,18.5458,VALID,156,VALID,0,
2001-05-09, 00:29:00,VALID,918.409,VALID,0,VALID,98.8609,VALID,-0.0509425,VALID,18.5133,VALID,156,VALID,0,
2001-05-09, 00:30:00,VALID,918.408,VALID,0,VALID,98.8278,VALID,0,VALID,18.5041,VALID,156,VALID,0,
2001-05-09, 00:31:00,VALID,918.417,VALID,0,VALID,98.7693,VALID,-0.0169808,VALID,18.4581,VALID,145,VALID,0,
2001-05-09, 00:32:00,VALID,918.41,VALID,0,VALID,98.7299,VALID,-0.0339617,VALID,18.4196,VALID,116,VALID,0,
2001-05-09, 00:33:00,VALID,918.393,VALID,0,VALID,98.6752,VALID,0,VALID,18.3675,VALID,114,VALID,0,
2001-05-09, 00:34:00,VALID,918.388,VALID,0,VALID,98.707,VALID,-0.0169808,VALID,18.3555,VALID,112,VALID,0,
2001-05-09, 00:35:00,VALID,918.373,VALID,0,VALID,98.7541,VALID,-0.0339617,VALID,18.3359,VALID,115,VALID,0,
2001-05-09, 00:36:00,VALID,918.331,VALID,0,VALID,98.7719,VALID,0,VALID,18.3262,VALID,120,VALID,0,
2001-05-09, 00:37:00,VALID,918.311,VALID,0,VALID,98.8253,VALID,-0.0169808,VALID,18.3234,VALID,120,VALID,0,
2001-05-09, 00:38:00,VALID,918.287,VALID,0,VALID,98.8494,VALID,-0.0339617,VALID,18.3071,VALID,133,VALID,0,
2001-05-09, 00:39:00,VALID,918.286,VALID,0,VALID,98.8787,VALID,-0.0169808,VALID,18.3038,VALID,126,VALID,0,
2001-05-09, 00:40:00,VALID,918.283,VALID,0,VALID,98.8965,VALID,0,VALID,18.2877,VALID,127,VALID,0,
2001-05-09, 00:41:00,VALID,918.284,VALID,0,VALID,98.9296,VALID,0,VALID,18.2904,VALID,132,VALID,0,
2001-05-09, 00:42:00,VALID,918.28,VALID,0,VALID,98.9054,VALID,0,VALID,18.2683,VALID,142,VALID,0,
2001-05-09, 00:43:00,VALID,918.277,VALID,0,VALID,98.9092,VALID,-0.0169808,VALID,18.2554,VALID,161,VALID,0,
2001-05-09, 00:44:00,VALID,918.268,VALID,0,VALID,98.9283,VALID,-0.0339617,VALID,18.2452,VALID,198,VALID,0,
2001-05-09, 00:45:00,VALID,918.256,VALID,0,VALID,98.9842,VALID,0,VALID,18.2485,VALID,195,VALID,0,
2001-05-09, 00:46:00,VALID,918.23,VALID,0,VALID,99.0313,VALID,-0.0169808,VALID,18.2584,VALID,195,VALID,0,
2001-05-09, 00:47:00,VALID,918.215,VALID,0,VALID,99.1127,VALID,0,VALID,18.2946,VALID,194,VALID,0,
2001-05-09, 00:48:00,VALID,918.2,VALID,0,VALID,99.161,VALID,-0.0169808,VALID,18.3135,VALID,188,VALID,0,
2001-05-09, 00:49:00,VALID,918.176,VALID,0,VALID,99.1661,VALID,0,VALID,18.3227,VALID,210,VALID,0,
2001-05-09, 00:50:00,VALID,918.176,VALID,0,VALID,99.1902,VALID,0,VALID,18.346,VALID,208,VALID,0,
2001-05-09, 00:51:00,VALID,918.168,VALID,0,VALID,99.2182,VALID,-0.0339617,VALID,18.3587,VALID,203,VALID,0,
2001-05-09, 00:52:00,VALID,918.156,VALID,0,VALID,99.2589,VALID,0,VALID,18.3843,VALID,200,VALID,0,
2001-05-09, 00:53:00,VALID,918.159,VALID,0,VALID,99.2691,VALID,-0.0339617,VALID,18.4042,VALID,191,VALID,0,
2001-05-09, 00:54:00,VALID,918.14,VALID,0,VALID,99.2932,VALID,-0.0169808,VALID,18.4395,VALID,189,VALID,0,
2001-05-09, 00:55:00,VALID,918.114,VALID,0,VALID,99.2767,VALID,0,VALID,18.4521,VALID,188,VALID,0,
2001-05-09, 00:56:00,VALID,918.096,VALID,0,VALID,99.2793,VALID,0.0169808,VALID,18.4385,VALID,201,VALID,0,
2001-05-09, 00:57:00,VALID,918.088,VALID,0,VALID,99.2932,VALID,-0.0169808,VALID,18.4586,VALID,195,VALID,0,
2001-05-09, 00:58:00,VALID,918.078,VALID,0,VALID,99.2945,VALID,0,VALID,18.475,VALID,194,VALID,0,
2001-05-09, 00:59:00,VALID,918.066,VALID,0.2,VALID,99.2894,VALID,0,VALID,18.4519,VALID,187,VALID,0,
2001-05-09, 01:00:00,VALID,918.054,VALID,0,VALID,99.2742,VALID,0,VALID,18.4554,VALID,184,VALID,0,
2001-05-09, 01:01:00,VALID,918.06,VALID,0,VALID,99.2754,VALID,0.0339617,VALID,18.4487,VALID,178,VALID,0,
2001-05-09, 01:02:00,VALID,918.055,VALID,0,VALID,99.2831,VALID,0,VALID,18.4581,VALID,182,VALID,0,
2001-05-09, 01:03:00,VALID,918.064,VALID,0,VALID,99.2716,VALID,0.0169808,VALID,18.4743,VALID,178,VALID,0,
2001-05-09, 01:04:00,VALID,918.065,VALID,0,VALID,99.2538,VALID,0.0169808,VALID,18.481,VALID,185,VALID,0,
2001-05-09, 01:05:00,VALID,918.06,VALID,0,VALID,99.2525,VALID,0,VALID,18.4904,VALID,182,VALID,0,
2001-05-09, 01:06:00,VALID,918.047,VALID,0,VALID,99.2551,VALID,0.0169808,VALID,18.51,VALID,188,VALID,0,
2001-05-09, 01:07:00,VALID,918.057,VALID,0,VALID,99.2411,VALID,-0.0169808,VALID,18.5232,VALID,192,VALID,0,
2001-05-09, 01:08:00,VALID,918.044,VALID,0,VALID,99.2462,VALID,0,VALID,18.543,VALID,197,VALID,0,
2001-05-09, 01:09:00,VALID,918.022,VALID,0,VALID,99.2373,VALID,-0.0339617,VALID,18.546,VALID,197,VALID,0,
2001-05-09, 01:10:00,VALID,918.015,VALID,0,VALID,99.2424,VALID,-0.0169808,VALID,18.5493,VALID,199,VALID,0,
2001-05-09, 01:11:00,VALID,918.009,VALID,0,VALID,99.25,VALID,0.0169808,VALID,18.5391,VALID,202,VALID,0,
2001-05-09, 01:12:00,VALID,918.002,VALID,0,VALID,99.2576,VALID,0,VALID,18.5654,VALID,206,VALID,0,
2001-05-09, 01:13:00,VALID,917.976,VALID,0,VALID,99.2665,VALID,0,VALID,18.5617,VALID,215,VALID,0,
2001-05-09, 01:14:00,VALID,917.975,VALID,0,VALID,99.2576,VALID,0,VALID,18.5751,VALID,208,VALID,0,
2001-05-09, 01:15:00,VALID,917.942,VALID,0,VALID,99.2665,VALID,0,VALID,18.5779,VALID,210,VALID,0,
2001-05-09, 01:16:00,VALID,917.906,VALID,0,VALID,99.2691,VALID,0,VALID,18.5779,VALID,226,VALID,0,
2001-05-09, 01:17:00,VALID,917.886,VALID,0,VALID,99.2589,VALID,0,VALID,18.5878,VALID,220,VALID,0,
2001-05-09, 01:18:00,VALID,917.869,VALID,0,VALID,99.2742,VALID,0,VALID,18.6007,VALID,223,VALID,0,
2001-05-09, 01:19:00,VALID,917.839,VALID,0,VALID,99.2691,VALID,0,VALID,18.6233,VALID,223,VALID,0,
2001-05-09, 01:20:00,VALID,917.825,VALID,0,VALID,99.2665,VALID,-0.0169808,VALID,18.6261,VALID,224,VALID,0,
2001-05-09, 01:21:00,VALID,917.82,VALID,0,VALID,99.264,VALID,0,VALID,18.6395,VALID,207,VALID,0,
2001-05-09, 01:22:00,VALID,917.802,VALID,0,VALID,99.2729,VALID,0.0169808,VALID,18.6492,VALID,197,VALID,0,
2001-05-09, 01:23:00,VALID,917.8,VALID,0,VALID,99.2564,VALID,0,VALID,18.672,VALID,205,VALID,0,
2001-05-09, 01:24:00,VALID,917.797,VALID,0,VALID,99.2322,VALID,0,VALID,18.6881,VALID,189,VALID,0,
2001-05-09, 01:25:00,VALID,917.776,VALID,0,VALID,99.1839,VALID,0,VALID,18.6911,VALID,194,VALID,0,
2001-05-09, 01:26:00,VALID,917.755,VALID,0,VALID,99.147,VALID,0,VALID,18.7006,VALID,191,VALID,0,
2001-05-09, 01:27:00,VALID,917.727,VALID,0,VALID,99.0961,VALID,-0.0169808,VALID,18.7165,VALID,164,VALID,0,
2001-05-09, 01:28:00,VALID,917.701,VALID,0,VALID,99.0745,VALID,0,VALID,18.7366,VALID,122,VALID,0,
2001-05-09, 01:29:00,VALID,917.689,VALID,0,VALID,99.0198,VALID,0.0169808,VALID,18.7334,VALID,132,VALID,0,
2001-05-09, 01:30:00,VALID,917.672,VALID,0,VALID,98.9626,VALID,-0.0169808,VALID,18.7068,VALID,164,VALID,0,
2001-05-09, 01:31:00,VALID,917.667,VALID,0,VALID,98.9245,VALID,-0.0339617,VALID,18.714,VALID,187,VALID,0,
2001-05-09, 01:32:00,VALID,917.654,VALID,0,VALID,98.9118,VALID,0,VALID,18.7105,VALID,215,VALID,0,
2001-05-09, 01:33:00,VALID,917.651,VALID,0,VALID,98.8851,VALID,-0.0169808,VALID,18.714,VALID,208,VALID,0,
2001-05-09, 01:34:00,VALID,917.653,VALID,0,VALID,98.8774,VALID,0,VALID,18.7336,VALID,103,VALID,0,
2001-05-09, 01:35:00,VALID,917.649,VALID,0,VALID,98.8304,VALID,-0.0339617,VALID,18.7237,VALID,92,VALID,0,
2001-05-09, 01:36:00,VALID,917.644,VALID,0,VALID,98.8164,VALID,-0.0509425,VALID,18.7299,VALID,96,VALID,0,
2001-05-09, 01:37:00,VALID,917.635,VALID,0,VALID,98.7808,VALID,0,VALID,18.714,VALID,92,VALID,0,
2001-05-09, 01:38:00,VALID,917.634,VALID,0,VALID,98.7643,VALID,-0.0169808,VALID,18.6874,VALID,96,VALID,0,
2001-05-09, 01:39:00,VALID,917.631,VALID,0,VALID,98.7312,VALID,-0.0169808,VALID,18.675,VALID,98,VALID,0,
2001-05-09, 01:40:00,VALID,917.633,VALID,0,VALID,98.6892,VALID,0.0169808,VALID,18.6295,VALID,95,VALID,0,
2001-05-09, 01:41:00,VALID,917.632,VALID,0,VALID,98.6791,VALID,0,VALID,18.5938,VALID,99,VALID,0,
2001-05-09, 01:42:00,VALID,917.625,VALID,0,VALID,98.7019,VALID,0.0169808,VALID,18.5553,VALID,89,VALID,0,
2001-05-09, 01:43:00,VALID,917.61,VALID,0,VALID,98.7134,VALID,-0.0339617,VALID,18.5359,VALID,83,VALID,0,
2001-05-09, 01:44:00,VALID,917.573,VALID,0,VALID,98.7375,VALID,0,VALID,18.5068,VALID,95,VALID,0,
2001-05-09, 01:45:00,VALID,917.55,VALID,0,VALID,98.7528,VALID,-0.0169808,VALID,18.4648,VALID,124,VALID,0,
2001-05-09, 01:46:00,VALID,917.537,VALID,0,VALID,98.7643,VALID,0,VALID,18.4288,VALID,129,VALID,0,
2001-05-09, 01:47:00,VALID,917.553,VALID,0,VALID,98.8024,VALID,0,VALID,18.4228,VALID,113,VALID,0,
2001-05-09, 01:48:00,VALID,917.53,VALID,0,VALID,98.8418,VALID,-0.0169808,VALID,18.3972,VALID,144,VALID,0,
2001-05-09, 01:49:00,VALID,917.534,VALID,0,VALID,98.9016,VALID,-0.0169808,VALID,18.4007,VALID,144,VALID,0,
2001-05-09, 01:50:00,VALID,917.558,VALID,0,VALID,98.9283,VALID,0,VALID,18.3871,VALID,146,VALID,0,
2001-05-09, 01:51:00,VALID,917.571,VALID,0,VALID,98.9334,VALID,0.0169808,VALID,18.3645,VALID,169,VALID,0,
2001-05-09, 01:52:00,VALID,917.573,VALID,0,VALID,98.9715,VALID,-0.0339617,VALID,18.3486,VALID,196,VALID,0,
2001-05-09, 01:53:00,VALID,917.557,VALID,0,VALID,98.9893,VALID,-0.0339617,VALID,18.3391,VALID,202,VALID,0,
2001-05-09, 01:54:00,VALID,917.55,VALID,0,VALID,98.997,VALID,0.0169808,VALID,18.3359,VALID,204,VALID,0,
2001-05-09, 01:55:00,VALID,917.546,VALID,0,VALID,99.0059,VALID,0.0339617,VALID,18.3163,VALID,204,VALID,0,
2001-05-09, 01:56:00,VALID,917.538,VALID,0,VALID,99.03,VALID,0.0169808,VALID,18.2967,VALID,205,VALID,0,
2001-05-09, 01:57:00,VALID,917.538,VALID,0,VALID,99.0707,VALID,0,VALID,18.3034,VALID,204,VALID,0,
2001-05-09, 01:58:00,VALID,917.532,VALID,0,VALID,99.0847,VALID,0.0339617,VALID,18.3098,VALID,202,VALID,0,
2001-05-09, 01:59:00,VALID,917.529,VALID,0,VALID,99.0389,VALID,0.0339617,VALID,18.2872,VALID,202,VALID,0,
2001-05-09, 02:00:00,VALID,917.524,VALID,0,VALID,99.0529,VALID,0.0509425,VALID,18.2579,VALID,179,VALID,0,
2001-05-09, 02:01:00,VALID,917.514,VALID,0,VALID,99.0911,VALID,0.0339617,VALID,18.2718,VALID,191,VALID,0,
2001-05-09, 02:02:00,VALID,917.516,VALID,0,VALID,99.1178,VALID,0,VALID,18.2582,VALID,195,VALID,0,
2001-05-09, 02:03:00,VALID,917.511,VALID,0,VALID,99.1661,VALID,0.0169808,VALID,18.2909,VALID,195,VALID,0,
2001-05-09, 02:04:00,VALID,917.494,VALID,0,VALID,99.1546,VALID,0.0169808,VALID,18.2808,VALID,183,VALID,0,
2001-05-09, 02:05:00,VALID,917.481,VALID,0,VALID,99.2564,VALID,0.0169808,VALID,18.3227,VALID,162,VALID,0,
2001-05-09, 02:06:00,VALID,917.467,VALID,0,VALID,99.2208,VALID,0,VALID,18.362,VALID,157,VALID,0,
2001-05-09, 02:07:00,VALID,917.458,VALID,0,VALID,99.1674,VALID,0.0339617,VALID,18.3331,VALID,117,VALID,0,
2001-05-09, 02:08:00,VALID,917.468,VALID,0,VALID,99.0644,VALID,0,VALID,18.2422,VALID,119,VALID,0,
2001-05-09, 02:09:00,VALID,917.455,VALID,0,VALID,99.0453,VALID,0.0169808,VALID,18.2104,VALID,120,VALID,0,
2001-05-09, 02:10:00,VALID,917.428,VALID,0,VALID,99.0351,VALID,0.0169808,VALID,18.1809,VALID,120,VALID,0,
2001-05-09, 02:11:00,VALID,917.412,VALID,0,VALID,99.0682,VALID,0,VALID,18.1746,VALID,120,VALID,0,
2001-05-09, 02:12:00,VALID,917.42,VALID,0,VALID,99.0872,VALID,0.0509425,VALID,18.1746,VALID,119,VALID,0,
2001-05-09, 02:13:00,VALID,917.411,VALID,0,VALID,99.0961,VALID,0.0339617,VALID,18.1744,VALID,107,VALID,0,
2001-05-09, 02:14:00,VALID,917.42,VALID,0,VALID,99.0898,VALID,0.0509425,VALID,18.1746,VALID,97,VALID,0,
2001-05-09, 02:15:00,VALID,917.418,VALID,0,VALID,99.0898,VALID,0,VALID,18.165,VALID,96,VALID,0,
2001-05-09, 02:16:00,VALID,917.426,VALID,0,VALID,99.1025,VALID,0.0169808,VALID,18.1714,VALID,96,VALID,0,
2001-05-09, 02:17:00,VALID,917.415,VALID,0,VALID,99.0923,VALID,0,VALID,18.1712,VALID,96,VALID,0,
2001-05-09, 02:18:00,VALID,917.403,VALID,0,VALID,99.1025,VALID,0,VALID,18.1786,VALID,96,VALID,0,
2001-05-09, 02:19:00,VALID,917.386,VALID,0,VALID,99.1546,VALID,0,VALID,18.1878,VALID,96,VALID,0,
2001-05-09, 02:20:00,VALID,917.38,VALID,0,VALID,99.1763,VALID,0,VALID,18.2235,VALID,96,VALID,0,
2001-05-09, 02:21:00,VALID,917.355,VALID,0,VALID,99.1267,VALID,0,VALID,18.2173,VALID,96,VALID,0,
2001-05-09, 02:22:00,VALID,917.332,VALID,0,VALID,99.0834,VALID,0,VALID,18.2173,VALID,154,VALID,0,
2001-05-09, 02:23:00,VALID,917.302,VALID,0,VALID,99.0338,VALID,0,VALID,18.1975,VALID,207,VALID,0,
2001-05-09, 02:24:00,VALID,917.287,VALID,0,VALID,99.0186,VALID,0.101885,VALID,18.1767,VALID,211,VALID,0,
2001-05-09, 02:25:00,VALID,917.263,VALID,0,VALID,99.0237,VALID,0.101885,VALID,18.177,VALID,207,VALID,0,
2001-05-09, 02:26:00,VALID,917.27,VALID,0,VALID,99.0173,VALID,0.118866,VALID,18.1802,VALID,205,VALID,0,
2001-05-09, 02:27:00,VALID,917.269,VALID,0,VALID,99.0694,VALID,0.0849042,VALID,18.1804,VALID,203,VALID,0,
2001-05-09, 02:28:00,VALID,917.271,VALID,0,VALID,99.1012,VALID,0.101885,VALID,18.2028,VALID,202,VALID,0,
2001-05-09, 02:29:00,VALID,917.275,VALID,0,VALID,99.1279,VALID,0.101885,VALID,18.2254,VALID,206,VALID,0,
2001-05-09, 02:30:00,VALID,917.253,VALID,0,VALID,99.1101,VALID,0.101885,VALID,18.2448,VALID,205,VALID,0,
2001-05-09, 02:31:00,VALID,917.243,VALID,0,VALID,99.0529,VALID,0.152827,VALID,18.2316,VALID,209,VALID,0,
2001-05-09, 02:32:00,VALID,917.22,VALID,0,VALID,99.0555,VALID,0.152827,VALID,18.215,VALID,202,VALID,0,
2001-05-09, 02:33:00,VALID,917.218,VALID,0,VALID,99.0567,VALID,0.101885,VALID,18.2116,VALID,208,VALID,0,
2001-05-09, 02:34:00,VALID,917.184,VALID,0,VALID,99.0834,VALID,0.101885,VALID,18.2185,VALID,202,VALID,0,
2001-05-09, 02:35:00,VALID,917.176,VALID,0,VALID,99.1699,VALID,0.118866,VALID,18.2542,VALID,187,VALID,0,
2001-05-09, 02:36:00,VALID,917.163,VALID,0,VALID,99.1864,VALID,0.118866,VALID,18.2791,VALID,188,VALID,0,
2001-05-09, 02:37:00,VALID,917.154,VALID,0,VALID,99.1763,VALID,0.101885,VALID,18.338,VALID,190,VALID,0,
2001-05-09, 02:38:00,VALID,917.148,VALID,0,VALID,99.189,VALID,0.101885,VALID,18.3474,VALID,188,VALID,0,
2001-05-09, 02:39:00,VALID,917.133,VALID,0,VALID,99.1496,VALID,-0.0679233,VALID,18.3892,VALID,178,VALID,0,
2001-05-09, 02:40:00,VALID,917.115,VALID,0,VALID,99.0618,VALID,-0.101885,VALID,18.3403,VALID,174,VALID,0,
2001-05-09, 02:41:00,VALID,917.11,VALID,0,VALID,99.0555,VALID,-0.0509425,VALID,18.3541,VALID,173,VALID,0,
2001-05-09, 02:42:00,VALID,917.074,VALID,0,VALID,99.0567,VALID,-0.101885,VALID,18.3636,VALID,175,VALID,0,
2001-05-09, 02:43:00,VALID,917.06,VALID,0,VALID,98.9931,VALID,-0.118866,VALID,18.3603,VALID,174,VALID,0,
2001-05-09, 02:44:00,VALID,917.031,VALID,0,VALID,98.927,VALID,-0.0849042,VALID,18.328,VALID,176,VALID,0,
2001-05-09, 02:45:00,VALID,917.007,VALID,0,VALID,98.9423,VALID,-0.101885,VALID,18.322,VALID,177,VALID,0,
2001-05-09, 02:46:00,VALID,917.001,VALID,0,VALID,98.9296,VALID,-0.101885,VALID,18.3119,VALID,175,VALID,0,
2001-05-09, 02:47:00,VALID,916.971,VALID,0,VALID,98.9079,VALID,-0.101885,VALID,18.2861,VALID,179,VALID,0,
2001-05-09, 02:48:00,VALID,916.94,VALID,0,VALID,98.9283,VALID,-0.0679233,VALID,18.2632,VALID,191,VALID,0,
2001-05-09, 02:49:00,VALID,916.93,VALID,0,VALID,98.9067,VALID,-0.0849042,VALID,18.2542,VALID,202,VALID,0,
2001-05-09, 02:50:00,VALID,916.898,VALID,0,VALID,98.9346,VALID,-0.101885,VALID,18.2314,VALID,191,VALID,0,
2001-05-09, 02:51:00,VALID,916.898,VALID,0,VALID,99.0071,VALID,-0.118866,VALID,18.2316,VALID,178,VALID,0,
2001-05-09, 02:52:00,VALID,916.874,VALID,0,VALID,99.0275,VALID,-0.0849042,VALID,18.2245,VALID,174,VALID,0,
2001-05-09, 02:53:00,VALID,916.866,VALID,0,VALID,99.0198,VALID,-0.0849042,VALID,18.2152,VALID,175,VALID,0,
2001-05-09, 02:54:00,VALID,916.863,VALID,0,VALID,99.0453,VALID,-0.0169808,VALID,18.2074,VALID,175,VALID,0,
2001-05-09, 02:55:00,VALID,916.853,VALID,0,VALID,99.0631,VALID,-0.0339617,VALID,18.2145,VALID,193,VALID,0,
2001-05-09, 02:56:00,VALID,916.849,VALID,0,VALID,99.0822,VALID,0,VALID,18.2009,VALID,200,VALID,0,
2001-05-09, 02:57:00,VALID,916.853,VALID,0,VALID,99.0593,VALID,-0.0169808,VALID,18.1949,VALID,199,VALID,0,
2001-05-09, 02:58:00,VALID,916.856,VALID,0,VALID,99.0618,VALID,-0.0169808,VALID,18.1684,VALID,198,VALID,0,
2001-05-09, 02:59:00,VALID,916.869,VALID,0,VALID,99.0631,VALID,-0.0169808,VALID,18.1488,VALID,198,VALID,0,
2001-05-09, 03:00:00,VALID,916.875,VALID,0,VALID,99.0822,VALID,0,VALID,18.1428,VALID,202,VALID,0,
2001-05-09, 03:01:00,VALID,916.866,VALID,0,VALID,99.1406,VALID,-0.0339617,VALID,18.1562,VALID,198,VALID,0,
2001-05-09, 03:02:00,VALID,916.871,VALID,0,VALID,99.1839,VALID,0.0169808,VALID,18.1714,VALID,197,VALID,0,
2001-05-09, 03:03:00,VALID,916.88,VALID,0,VALID,99.1966,VALID,-0.0169808,VALID,18.2076,VALID,196,VALID,0,
2001-05-09, 03:04:00,VALID,916.882,VALID,0,VALID,99.2131,VALID,0,VALID,18.2102,VALID,198,VALID,0,
2001-05-09, 03:05:00,VALID,916.894,VALID,0,VALID,99.236,VALID,0,VALID,18.2429,VALID,200,VALID,0,
2001-05-09, 03:06:00,VALID,916.892,VALID,0,VALID,99.2309,VALID,0,VALID,18.2591,VALID,206,VALID,0,
2001-05-09, 03:07:00,VALID,916.902,VALID,0,VALID,99.2131,VALID,0,VALID,18.2591,VALID,212,VALID,0,
2001-05-09, 03:08:00,VALID,916.907,VALID,0,VALID,99.2131,VALID,0,VALID,18.2722,VALID,219,VALID,0,
2001-05-09, 03:09:00,VALID,916.91,VALID,0,VALID,99.2386,VALID,0.0849042,VALID,18.2838,VALID,215,VALID,0,
2001-05-09, 03:10:00,VALID,916.911,VALID,0,VALID,99.2538,VALID,0.0849042,VALID,18.3128,VALID,211,VALID,0,
2001-05-09, 03:11:00,VALID,916.917,VALID,0,VALID,99.2322,VALID,0.101885,VALID,18.3059,VALID,206,VALID,0,
2001-05-09, 03:12:00,VALID,916.919,VALID,0,VALID,99.2195,VALID,0.0679233,VALID,18.3354,VALID,210,VALID,0,
2001-05-09, 03:13:00,VALID,916.9,VALID,0,VALID,99.2182,VALID,0.0849042,VALID,18.329,VALID,198,VALID,0,
2001-05-09, 03:14:00,VALID,916.915,VALID,0,VALID,99.1852,VALID,0.101885,VALID,18.332,VALID,192,VALID,0,
2001-05-09, 03:15:00,VALID,916.91,VALID,0,VALID,99.189,VALID,0.0849042,VALID,18.3285,VALID,192,VALID,0,
2001-05-09, 03:16:00,VALID,916.909,VALID,0,VALID,99.1839,VALID,0.0679233,VALID,18.3419,VALID,192,VALID,0,
2001-05-09, 03:17:00,VALID,916.914,VALID,0,VALID,99.1585,VALID,0.0679233,VALID,18.3223,VALID,192,VALID,0,
2001-05-09, 03:18:00,VALID,916.914,VALID,0,VALID,99.1534,VALID,0.101885,VALID,18.3257,VALID,193,VALID,0,
2001-05-09, 03:19:00,VALID,916.913,VALID,0,VALID,99.1559,VALID,0.101885,VALID,18.3223,VALID,193,VALID,0,
2001-05-09, 03:20:00,VALID,916.893,VALID,0,VALID,99.1635,VALID,0.0849042,VALID,18.3257,VALID,180,VALID,0,
2001-05-09, 03:21:00,VALID,916.874,VALID,0,VALID,99.1839,VALID,0.101885,VALID,18.3223,VALID,175,VALID,0,
2001-05-09, 03:22:00,VALID,916.867,VALID,0,VALID,99.1572,VALID,0.101885,VALID,18.3357,VALID,179,VALID,0,
2001-05-09, 03:23:00,VALID,916.841,VALID,0,VALID,99.0567,VALID,0.101885,VALID,18.2706,VALID,178,VALID,0,
2001-05-09, 03:24:00,VALID,916.819,VALID,0,VALID,98.9397,VALID,0,VALID,18.1783,VALID,163,VALID,0,
2001-05-09, 03:25:00,VALID,916.816,VALID,0,VALID,98.9461,VALID,0,VALID,18.1364,VALID,155,VALID,0,
2001-05-09, 03:26:00,VALID,916.802,VALID,0,VALID,99.1025,VALID,-0.0169808,VALID,18.1749,VALID,173,VALID,0,
2001-05-09, 03:27:00,VALID,916.792,VALID,0,VALID,99.1406,VALID,0.0169808,VALID,18.2007,VALID,156,VALID,0,
2001-05-09, 03:28:00,VALID,916.797,VALID,0,VALID,98.9703,VALID,0,VALID,18.1234,VALID,138,VALID,0,
2001-05-09, 03:29:00,VALID,916.812,VALID,0,VALID,98.8685,VALID,-0.0169808,VALID,18.0457,VALID,143,VALID,0,
2001-05-09, 03:30:00,VALID,916.813,VALID,0,VALID,98.9855,VALID,0,VALID,18.0489,VALID,158,VALID,0,
2001-05-09, 03:31:00,VALID,916.822,VALID,0,VALID,99.1585,VALID,-0.0169808,VALID,18.1137,VALID,160,VALID,0,
2001-05-09, 03:32:00,VALID,916.835,VALID,0,VALID,99.2704,VALID,-0.0169808,VALID,18.194,VALID,162,VALID,0,
2001-05-09, 03:33:00,VALID,916.849,VALID,0,VALID,99.2894,VALID,0,VALID,18.2688,VALID,163,VALID,0,
2001-05-09, 03:34:00,VALID,916.867,VALID,0,VALID,99.1368,VALID,0,VALID,18.2104,VALID,156,VALID,0,
2001-05-09, 03:35:00,VALID,916.878,VALID,0,VALID,98.8787,VALID,0,VALID,18.0554,VALID,155,VALID,0,
2001-05-09, 03:36:00,VALID,916.873,VALID,0,VALID,99.1063,VALID,0,VALID,18.0847,VALID,176,VALID,0,
2001-05-09, 03:37:00,VALID,916.874,VALID,0,VALID,99.2042,VALID,0,VALID,18.1712,VALID,198,VALID,0,
2001-05-09, 03:38:00,VALID,916.864,VALID,0,VALID,99.1928,VALID,0,VALID,18.2268,VALID,205,VALID,0,
2001-05-09, 03:39:00,VALID,916.854,VALID,0,VALID,99.1063,VALID,0,VALID,18.2173,VALID,221,VALID,0,
2001-05-09, 03:40:00,VALID,916.871,VALID,0,VALID,99.1127,VALID,0,VALID,18.2139,VALID,220,VALID,0,
2001-05-09, 03:41:00,VALID,916.875,VALID,0,VALID,99.1025,VALID,0,VALID,18.2003,VALID,224,VALID,0,
2001-05-09, 03:42:00,VALID,916.874,VALID,0,VALID,99.0796,VALID,0.0169808,VALID,18.2042,VALID,210,VALID,0,
2001-05-09, 03:43:00,VALID,916.875,VALID,0,VALID,99.0097,VALID,0.0339617,VALID,18.1557,VALID,199,VALID,0,
2001-05-09, 03:44:00,VALID,916.88,VALID,0,VALID,99.0046,VALID,0,VALID,18.1135,VALID,199,VALID,0,
2001-05-09, 03:45:00,VALID,916.884,VALID,0,VALID,99.0593,VALID,0,VALID,18.1038,VALID,204,VALID,0,
2001-05-09, 03:46:00,VALID,916.886,VALID,0,VALID,99.0885,VALID,0,VALID,18.0974,VALID,201,VALID,0,
2001-05-09, 03:47:00,VALID,916.888,VALID,0,VALID,99.147,VALID,0,VALID,18.1174,VALID,203,VALID,0,
2001-05-09, 03:48:00,VALID,916.89,VALID,0,VALID,99.175,VALID,-0.0339617,VALID,18.1105,VALID,204,VALID,0,